TimeCST,TemperatureF,Dew PointF,Humidity,Sea Level PressureIn,VisibilityMPH,Wind Direction,Wind SpeedMPH,Gust SpeedMPH,PrecipitationIn,Events,Conditions,WindDirDegrees,DateUTC
12:56 AM,53.6,48.2,82,30.15,10.0,Calm,Calm,-,N/A,,Partly Cloudy,0,2011-11-13 06:56:00
1:56 AM,54.0,48.9,83,30.14,10.0,Calm,Calm,-,N/A,,Partly Cloudy,0,2011-11-13 07:56:00
2:56 AM,55.0,50.0,83,30.14,10.0,Calm,Calm,-,N/A,,Mostly Cloudy,0,2011-11-13 08:56:00
3:56 AM,55.9,51.1,84,30.14,10.0,Calm,Calm,-,N/A,,Overcast,0,2011-11-13 09:56:00
4:56 AM,55.0,51.1,86,30.15,10.0,Calm,Calm,-,N/A,,Scattered Clouds,0,2011-11-13 10:56:00
5:56 AM,53.1,50.0,89,30.14,10.0,ESE,3.5,-,N/A,,Scattered Clouds,110,2011-11-13 11:56:00
6:56 AM,53.6,51.8,94,30.15,10.0,Calm,Calm,-,N/A,,Scattered Clouds,0,2011-11-13 12:56:00
7:56 AM,62.1,55.0,78,30.16,10.0,East,4.6,-,N/A,,Scattered Clouds,100,2011-11-13 13:56:00
8:56 AM,70.0,57.9,65,30.16,10.0,South,6.9,-,N/A,,Scattered Clouds,170,2011-11-13 14:56:00
9:56 AM,75.0,59.0,57,30.15,10.0,SE,10.4,-,N/A,,Scattered Clouds,140,2011-11-13 15:56:00
10:56 AM,77.0,57.9,52,30.13,10.0,South,18.4,23.0,N/A,,Mostly Cloudy,170,2011-11-13 16:56:00
11:56 AM,75.0,57.9,55,30.11,10.0,South,13.8,-,N/A,,Mostly Cloudy,190,2011-11-13 17:56:00
12:56 PM,75.0,60.1,60,30.08,10.0,South,13.8,20.7,N/A,,Mostly Cloudy,180,2011-11-13 18:56:00
1:56 PM,75.0,60.1,60,30.06,10.0,South,13.8,-,N/A,,Mostly Cloudy,170,2011-11-13 19:56:00
2:56 PM,75.9,60.1,58,30.06,10.0,South,11.5,-,N/A,,Mostly Cloudy,170,2011-11-13 20:56:00
3:56 PM,73.9,60.1,62,30.06,10.0,South,12.7,-,N/A,,Mostly Cloudy,170,2011-11-13 21:56:00
4:56 PM,72.0,61.0,68,30.06,10.0,SSE,6.9,-,N/A,,Mostly Cloudy,150,2011-11-13 22:56:00
5:56 PM,70.0,62.1,76,30.08,10.0,SE,8.1,-,N/A,,Overcast,140,2011-11-13 23:56:00
6:56 PM,69.1,63.0,81,30.09,10.0,SE,8.1,-,N/A,,Overcast,140,2011-11-14 00:56:00
7:56 PM,69.1,63.0,81,30.08,10.0,SE,6.9,-,N/A,,Mostly Cloudy,140,2011-11-14 01:56:00
8:56 PM,68.0,64.0,87,30.09,7.0,SE,6.9,-,0.00,,Overcast,130,2011-11-14 02:56:00
9:56 PM,68.0,64.9,90,30.08,10.0,SE,6.9,-,0.00,,Overcast,140,2011-11-14 03:56:00
10:56 PM,69.1,64.9,87,30.08,10.0,South,8.1,-,0.00,,Overcast,170,2011-11-14 04:56:00
11:49 PM,69.8,64.4,83,30.08,9.0,SW,8.1,-,0.00,Rain,Light Rain,220,2011-11-14 05:49:00
11:56 PM,69.1,66.0,90,30.07,9.0,SSW,8.1,-,0.01,Rain,Rain,200,2011-11-14 05:56:00